Davenport, IA

5:14 PM CDT on September 29, 2016 (GMT -0500)
Davenport Municipal

Weather History for KDVN - March, 2013

Change the Weather History Date:

Wednesday, March 6, 2013

  Actual Average Record
Temperature  
Mean Temperature 24 °F 34 °F  
Max Temperature 28 °F 43 °F 71 °F (1974)
Min Temperature 20 °F 25 °F -5 °F (1960)
Degree Days  
Heating Degree Days 41 31  
Month to date heating degree days 250 195  
Since 1 July heating degree days 5036 5220  
Cooling Degree Days 0 0  
Month to date cooling degree days 0 0  
Year to date cooling degree days 0 0  
Moisture  
Dew Point 19 °F    
Average Humidity 79    
Maximum Humidity 84    
Minimum Humidity 74    
Precipitation  
Precipitation T in 0.07 in 0.85 in (1961)
Month to date precipitation 0.28 0.44  
Year to date precipitation 3.98 2.97  
Snow  
Snow T in - - ()
Month to date snowfall 5.1  
Since 1 July snowfall 23.7  
Snow Depth 6.00 in    
Sea Level Pressure  
Sea Level Pressure 30.32 in    
Wind  
Wind Speed 10 mph (NW)    
Max Wind Speed 22 mph    
Max Gust Speed 26 mph    
Visibility 10 miles    
Events      
T = Trace of Precipitation, MM = Missing Value Source: NWS Daily Summary

Daily Weather History Graph

Daily Weather History Graph

Search for Another Location

Airport or City:

Trip Planner

Search our weather history database for the weather conditions in past years. The results will help you decide how hot, cold, wet, or windy it might be!

Date:

Astronomy

Mar. 06, 2013 Rise Set
Actual Time 6:28 AM CST 5:59 PM CST
Civil Twilight 6:00 AM CST 6:26 PM CST
Nautical Twilight 5:28 AM CST 6:58 PM CST
Astronomical Twilight 4:56 AM CST 7:31 PM CST
Moon 2:41 AM CST (3/6) 12:37 PM CST (3/6)
Length of Visible Light 12h 25m
Length of Day
11h 30m
Waning Crescent, 29% of the Moon is Illuminated
Mar 6
Waning Crescent
Mar 11
New
Mar 19
First Quarter
Mar 27
Full
Apr 2
Last Quarter

Hourly Weather History & Observations

Time (CST) Temp. Windchill Dew Point Humidity Pressure Visibility Wind Dir Wind Speed Gust Speed Precip Events Conditions
12:41 AM 26.6 °F 14.3 °F 21.2 °F 80% 30.15 in 10.0 mi NNW 16.1 mph - N/A   Overcast
12:52 AM 27.0 °F 14.3 °F 21.9 °F 81% 30.19 in 10.0 mi NNW 17.3 mph - N/A   Overcast
1:52 AM 26.1 °F 14.5 °F 21.0 °F 81% 30.20 in 10.0 mi NNW 13.8 mph - N/A   Overcast
2:52 AM 25.0 °F 12.2 °F 19.9 °F 81% 30.22 in 10.0 mi NW 16.1 mph - N/A   Overcast
3:52 AM 21.9 °F 9.2 °F 17.1 °F 82% 30.25 in 10.0 mi NW 13.8 mph - N/A   Partly Cloudy
4:52 AM 21.0 °F 8.1 °F 17.1 °F 85% 30.27 in 10.0 mi NNW 13.8 mph - N/A   Scattered Clouds
5:52 AM 21.0 °F 9.3 °F 17.1 °F 85% 30.30 in 10.0 mi NW 11.5 mph - N/A   Mostly Cloudy
6:29 AM 19.4 °F 7.2 °F 15.8 °F 86% 30.28 in 10.0 mi NNW 11.5 mph - N/A   Scattered Clouds
6:48 AM 23.0 °F 9.2 °F 17.6 °F 80% 30.29 in 10.0 mi NNW 17.3 mph - N/A   Mostly Cloudy
6:52 AM 23.0 °F 8.7 °F 18.0 °F 81% 30.32 in 10.0 mi NNW 18.4 mph - N/A   Mostly Cloudy
7:10 AM 24.8 °F 11.1 °F 19.4 °F 80% 30.29 in 10.0 mi NNW 18.4 mph 26.5 mph N/A   Overcast
7:52 AM 25.0 °F 12.6 °F 19.0 °F 78% 30.34 in 10.0 mi NNW 15.0 mph - N/A   Overcast
8:52 AM 26.1 °F 14.0 °F 19.0 °F 75% 30.36 in 10.0 mi NNW 15.0 mph - N/A   Overcast
9:52 AM 26.1 °F 15.0 °F 19.9 °F 78% 30.36 in 10.0 mi NNW 12.7 mph - N/A   Overcast
10:52 AM 27.0 °F 17.3 °F 19.9 °F 75% 30.37 in 10.0 mi NNW 10.4 mph - N/A   Overcast
11:52 AM 27.0 °F 16.7 °F 19.9 °F 75% 30.37 in 8.0 mi NW 11.5 mph - N/A   Overcast
12:52 PM 27.0 °F 18.0 °F 19.9 °F 75% 30.36 in 8.0 mi NNW 9.2 mph - N/A   Overcast
1:52 PM 27.0 °F 18.0 °F 19.9 °F 75% 30.35 in 9.0 mi NW 9.2 mph - N/A   Overcast
2:52 PM 27.0 °F 18.0 °F 19.9 °F 75% 30.35 in 9.0 mi NW 9.2 mph - N/A   Overcast
3:52 PM 27.0 °F 18.0 °F 19.9 °F 75% 30.36 in 10.0 mi WNW 9.2 mph - N/A   Overcast
4:52 PM 26.1 °F 19.4 °F 19.9 °F 78% 30.37 in 10.0 mi NW 5.8 mph - N/A   Overcast
5:52 PM 26.1 °F 17.6 °F 19.9 °F 78% 30.38 in 10.0 mi WNW 8.1 mph - N/A   Overcast
6:52 PM 25.0 °F 17.1 °F 19.0 °F 78% 30.39 in 10.0 mi WNW 6.9 mph - N/A   Overcast
7:52 PM 25.0 °F 18.1 °F 19.0 °F 78% 30.37 in 10.0 mi NW 5.8 mph - N/A   Overcast
8:52 PM 24.1 °F 15.2 °F 18.0 °F 77% 30.37 in 10.0 mi NW 8.1 mph - N/A   Overcast
9:52 PM 24.1 °F - 18.0 °F 77% 30.37 in 9.0 mi Calm Calm - N/A   Overcast
10:52 PM 23.0 °F 15.8 °F 18.0 °F 81% 30.38 in 8.0 mi WNW 5.8 mph - N/A   Overcast